| time (UTC) | temp C | wind direction | speed KPH | gust KPH | rain 1hr cm | rain 24hr cm | rain mn cm | humidity % | barometer mb |
| 20260507232240 | 7 | 271 | 11.3 | 20.9 | 0.00 | 0.00 | 0.00 | 56 | 1010.8 |
| 20260507231728 | 7 | 275 | 14.5 | 20.9 | 0.00 | 0.00 | 0.00 | 57 | 1010.8 |
| 20260507231243 | 7 | 275 | 16.1 | 20.9 | 0.00 | 0.00 | 0.00 | 58 | 1010.9 |
| 20260507230745 | 7 | 284 | 9.7 | 17.7 | 0.00 | 0.00 | 0.00 | 58 | 1010.8 |
| 20260507230233 | 7 | 279 | 12.9 | 17.7 | 0.00 | 0.00 | 0.00 | 58 | 1010.9 |
| 20260507225731 | 7 | 265 | 11.3 | 17.7 | 0.00 | 0.00 | 0.00 | 58 | 1010.8 |
| 20260507225237 | 7 | 277 | 9.7 | 19.3 | 0.00 | 0.00 | 0.00 | 58 | 1010.9 |
| 20260507224725 | 7 | 277 | 12.9 | 20.9 | 0.00 | 0.00 | 0.00 | 57 | 1011.0 |
| 20260507224240 | 7 | 288 | 12.9 | 19.3 | 0.00 | 0.00 | 0.00 | 58 | 1011.0 |
| 20260507223728 | 7 | 286 | 9.7 | 17.7 | 0.00 | 0.00 | 0.00 | 57 | 1011.0 |
| 20260507223244 | 7 | 294 | 11.3 | 20.9 | 0.00 | 0.00 | 0.00 | 57 | 1011.0 |
| 20260507222739 | 7 | 293 | 12.9 | 20.9 | 0.00 | 0.00 | 0.00 | 57 | 1011.0 |
| 20260507222245 | 7 | 288 | 12.9 | 19.3 | 0.00 | 0.00 | 0.00 | 58 | 1011.1 |
| 20260507221733 | 7 | 271 | 12.9 | 19.3 | 0.00 | 0.00 | 0.00 | 58 | 1011.1 |
| 20260507221239 | 7 | 282 | 14.5 | 22.5 | 0.00 | 0.00 | 0.00 | 58 | 1011.1 |
| 20260507220727 | 7 | 294 | 14.5 | 22.5 | 0.00 | 0.00 | 0.00 | 59 | 1011.1 |
| 20260507220247 | 7 | 291 | 9.7 | 19.3 | 0.00 | 0.00 | 0.00 | 59 | 1011.0 |
| 20260507215746 | 7 | 283 | 14.5 | 20.9 | 0.00 | 0.00 | 0.00 | 59 | 1011.1 |
| 20260507215234 | 7 | 290 | 12.9 | 22.5 | 0.00 | 0.00 | 0.00 | 60 | 1011.1 |
| 20260507214736 | 7 | 294 | 16.1 | 24.1 | 0.00 | 0.00 | 0.00 | 60 | 1011.1 |
| 20260507214242 | 7 | 276 | 16.1 | 24.1 | 0.00 | 0.00 | 0.00 | 61 | 1011.1 |
| 20260507213728 | 7 | 282 | 17.7 | 24.1 | 0.00 | 0.00 | 0.00 | 60 | 1011.1 |
| 20260507213238 | 7 | 274 | 16.1 | 24.1 | 0.00 | 0.00 | 0.00 | 59 | 1011.1 |
| 20260507212736 | 7 | 289 | 12.9 | 22.5 | 0.00 | 0.00 | 0.00 | 60 | 1011.1 |
| 20260507212223 | 7 | 269 | 12.9 | 22.5 | 0.00 | 0.00 | 0.00 | 61 | 1011.1 |
| 20260507211720 | 7 | 304 | 12.9 | 20.9 | 0.00 | 0.00 | 0.00 | 58 | 1011.1 |
| 20260507211236 | 7 | 282 | 12.9 | 27.4 | 0.00 | 0.00 | 0.00 | 56 | 1011.1 |
| 20260507210741 | 7 | 273 | 16.1 | 27.4 | 0.00 | 0.00 | 0.00 | 57 | 1011.0 |
| 20260507210229 | 7 | 294 | 17.7 | 25.7 | 0.00 | 0.00 | 0.00 | 58 | 1011.1 |
| 20260507205730 | 7 | 275 | 19.3 | 25.7 | 0.00 | 0.00 | 0.00 | 56 | 1011.1 |
| 20260507205220 | 7 | 259 | 17.7 | 27.4 | 0.00 | 0.00 | 0.00 | 57 | 1011.1 |
| 20260507204736 | 7 | 279 | 17.7 | 27.4 | 0.00 | 0.00 | 0.00 | 57 | 1011.1 |
| 20260507204224 | 7 | 285 | 14.5 | 24.1 | 0.00 | 0.00 | 0.00 | 60 | 1011.1 |
| 20260507203720 | 7 | 284 | 16.1 | 22.5 | 0.00 | 0.00 | 0.00 | 62 | 1011.1 |
| 20260507203237 | 7 | 291 | 12.9 | 24.1 | 0.00 | 0.00 | 0.00 | 61 | 1011.1 |
| 20260507202733 | 7 | 262 | 14.5 | 27.4 | 0.00 | 0.00 | 0.00 | 62 | 1011.1 |
| 20260507202243 | 7 | 271 | 17.7 | 27.4 | 0.00 | 0.00 | 0.00 | 63 | 1011.1 |
| 20260507201732 | 7 | 288 | 12.9 | 25.7 | 0.00 | 0.00 | 0.00 | 62 | 1011.1 |
| 20260507201240 | 7 | 290 | 14.5 | 29.0 | 0.00 | 0.00 | 0.00 | 63 | 1011.1 |
| 20260507200729 | 7 | 292 | 16.1 | 29.0 | 0.00 | 0.00 | 0.00 | 64 | 1011.1 |
| 20260507200245 | 7 | 285 | 14.5 | 25.7 | 0.00 | 0.00 | 0.00 | 63 | 1011.1 |
| 20260507195744 | 7 | 298 | 17.7 | 25.7 | 0.00 | 0.00 | 0.00 | 64 | 1011.1 |
| 20260507195232 | 7 | 311 | 16.1 | 24.1 | 0.00 | 0.00 | 0.00 | 64 | 1011.1 |
| 20260507194722 | 7 | 292 | 14.5 | 22.5 | 0.00 | 0.00 | 0.00 | 61 | 1011.1 |
| 20260507194234 | 8 | 301 | 12.9 | 19.3 | 0.00 | 0.00 | 0.00 | 58 | 1011.2 |
| 20260507193721 | 8 | 280 | 12.9 | 22.5 | 0.00 | 0.00 | 0.00 | 53 | 1011.2 |
| 20260507193244 | 8 | 269 | 12.9 | 24.1 | 0.00 | 0.00 | 0.00 | 53 | 1011.2 |
| 20260507192723 | 8 | 268 | 11.3 | 22.5 | 0.00 | 0.00 | 0.00 | 51 | 1011.3 |
| 20260507192218 | 8 | 263 | 12.9 | 29.0 | 0.00 | 0.00 | 0.00 | 52 | 1011.3 |
| 20260507191735 | 8 | 252 | 20.9 | 29.0 | 0.00 | 0.00 | 0.00 | 52 | 1011.4 |
| 20260507191223 | 7 | 257 | 14.5 | 29.0 | 0.00 | 0.00 | 0.00 | 53 | 1011.4 |
| 20260507190738 | 7 | 250 | 16.1 | 29.0 | 0.00 | 0.00 | 0.00 | 54 | 1011.5 |
| 20260507190240 | 7 | 263 | 12.9 | 25.7 | 0.00 | 0.00 | 0.00 | 58 | 1011.5 |
| 20260507185718 | 7 | 277 | 11.3 | 22.5 | 0.00 | 0.00 | 0.00 | 64 | 1011.6 |
| 20260507185235 | 7 | 300 | 14.5 | 22.5 | 0.00 | 0.00 | 0.00 | 64 | 1011.5 |
| 20260507184722 | 7 | 288 | 14.5 | 24.1 | 0.00 | 0.00 | 0.00 | 64 | 1011.6 |
| 20260507184239 | 7 | 283 | 16.1 | 30.6 | 0.00 | 0.00 | 0.00 | 65 | 1011.6 |
| 20260507183727 | 6 | 282 | 17.7 | 30.6 | 0.00 | 0.00 | 0.00 | 67 | 1011.6 |
| 20260507183244 | 6 | 279 | 17.7 | 25.7 | 0.00 | 0.00 | 0.00 | 69 | 1011.7 |
| 20260507182723 | 6 | 286 | 17.7 | 27.4 | 0.00 | 0.00 | 0.00 | 70 | 1011.7 |
| 20260507182238 | 6 | 279 | 19.3 | 27.4 | 0.00 | 0.00 | 0.00 | 70 | 1011.8 |
| 20260507181742 | 6 | 298 | 16.1 | 27.4 | 0.00 | 0.00 | 0.00 | 70 | 1011.8 |
| 20260507181231 | 6 | 288 | 16.1 | 27.4 | 0.00 | 0.00 | 0.00 | 70 | 1011.8 |
| 20260507180737 | 6 | 267 | 17.7 | 27.4 | 0.00 | 0.00 | 0.00 | 70 | 1011.9 |
| 20260507180245 | 6 | 288 | 17.7 | 27.4 | 0.00 | 0.00 | 0.00 | 68 | 1011.9 |
| 20260507175723 | 6 | 294 | 17.7 | 27.4 | 0.00 | 0.00 | 0.00 | 67 | 1011.9 |
| 20260507175238 | 6 | 306 | 16.1 | 25.7 | 0.00 | 0.00 | 0.00 | 66 | 1012.0 |
| 20260507174726 | 6 | 291 | 11.3 | 19.3 | 0.00 | 0.00 | 0.00 | 64 | 1012.0 |
| 20260507174241 | 6 | 271 | 11.3 | 19.3 | 0.00 | 0.00 | 0.00 | 62 | 1012.0 |
| 20260507173744 | 7 | 303 | 11.3 | 22.5 | 0.00 | 0.00 | 0.00 | 62 | 1012.1 |
| 20260507173231 | 7 | 289 | 12.9 | 24.1 | 0.00 | 0.00 | 0.00 | 63 | 1012.1 |
| 20260507172729 | 6 | 302 | 14.5 | 24.1 | 0.00 | 0.00 | 0.00 | 64 | 1012.2 |
| 20260507172236 | 6 | 303 | 12.9 | 20.9 | 0.00 | 0.00 | 0.00 | 63 | 1012.3 |
| 20260507171724 | 6 | 310 | 14.5 | 20.9 | 0.00 | 0.00 | 0.00 | 63 | 1012.2 |
| 20260507171240 | 6 | 286 | 14.5 | 20.9 | 0.00 | 0.00 | 0.00 | 63 | 1012.3 |
| 20260507170726 | 6 | 271 | 14.5 | 25.7 | 0.00 | 0.00 | 0.00 | 63 | 1012.4 |
| 20260507170242 | 6 | 289 | 16.1 | 25.7 | 0.00 | 0.00 | 0.00 | 61 | 1012.4 |
| 20260507165737 | 6 | 296 | 14.5 | 24.1 | 0.00 | 0.00 | 0.00 | 62 | 1012.5 |
| 20260507165245 | 6 | 277 | 14.5 | 24.1 | 0.00 | 0.00 | 0.00 | 63 | 1012.6 |
| 20260507164734 | 6 | 299 | 17.7 | 24.1 | 0.00 | 0.00 | 0.00 | 64 | 1012.7 |
| 20260507164221 | 6 | 289 | 17.7 | 24.1 | 0.00 | 0.00 | 0.00 | 64 | 1012.7 |
| 20260507163736 | 6 | 290 | 14.5 | 25.7 | 0.00 | 0.00 | 0.00 | 65 | 1012.7 |
| 20260507163222 | 6 | 298 | 16.1 | 25.7 | 0.00 | 0.00 | 0.00 | 66 | 1012.7 |
| 20260507162728 | 6 | 290 | 19.3 | 25.7 | 0.00 | 0.00 | 0.00 | 67 | 1012.7 |
| 20260507162243 | 6 | 280 | 16.1 | 29.0 | 0.00 | 0.00 | 0.00 | 68 | 1012.7 |
| 20260507161745 | 6 | 271 | 16.1 | 29.0 | 0.00 | 0.00 | 0.00 | 68 | 1012.8 |
| 20260507161232 | 6 | 284 | 17.7 | 25.7 | 0.00 | 0.00 | 0.00 | 67 | 1012.8 |
| 20260507160740 | 6 | 292 | 17.7 | 24.1 | 0.00 | 0.00 | 0.00 | 68 | 1012.8 |
| 20260507160246 | 6 | 279 | 17.7 | 25.7 | 0.00 | 0.00 | 0.00 | 69 | 1012.9 |
| 20260507155723 | 6 | 303 | 14.5 | 25.7 | 0.00 | 0.00 | 0.00 | 69 | 1012.8 |
| 20260507155220 | 6 | 284 | 14.5 | 20.9 | 0.00 | 0.00 | 0.00 | 69 | 1012.9 |
| 20260507154736 | 6 | 298 | 11.3 | 19.3 | 0.00 | 0.00 | 0.00 | 69 | 1012.9 |
| 20260507154222 | 6 | 298 | 12.9 | 19.3 | 0.00 | 0.00 | 0.00 | 73 | 1012.9 |
| 20260507153733 | 6 | 292 | 9.7 | 19.3 | 0.00 | 0.00 | 0.00 | 72 | 1013.0 |
| 20260507153238 | 6 | 311 | 6.4 | 16.1 | 0.00 | 0.00 | 0.00 | 74 | 1013.0 |
| 20260507152738 | 6 | 309 | 9.7 | 14.5 | 0.00 | 0.00 | 0.00 | 76 | 1013.0 |
| 20260507152226 | 6 | 303 | 3.2 | 14.5 | 0.00 | 0.00 | 0.00 | 77 | 1012.9 |
| 20260507151746 | 6 | 296 | 0.0 | 0.0 | 0.00 | 0.00 | 0.00 | 76 | 1013.0 |
| 20260507151233 | 5 | 286 | 0.0 | 0.0 | 0.00 | 0.00 | 0.00 | 77 | 1013.0 |
| 20260507150721 | 5 | 294 | 0.0 | 0.0 | 0.00 | 0.00 | 0.00 | 79 | 1013.0 |
| 20260507150218 | 5 | 290 | 0.0 | 0.0 | 0.00 | 0.00 | 0.00 | 78 | 1013.0 |
| 20260507145741 | 5 | 258 | 0.0 | 0.0 | 0.00 | 0.00 | 0.00 | 77 | 1013.0 |
| 20260507145230 | 6 | 256 | 0.0 | 12.9 | 0.00 | 0.00 | 0.00 | 75 | 1013.1 |
| 20260507144737 | 5 | 256 | 1.6 | 17.7 | 0.00 | 0.00 | 0.00 | 76 | 1013.0 |
| 20260507144241 | 5 | 257 | 11.3 | 17.7 | 0.00 | 0.00 | 0.00 | 77 | 1013.0 |
| 20260507143729 | 5 | 246 | 6.4 | 14.5 | 0.00 | 0.00 | 0.00 | 77 | 1013.1 |
| 20260507143246 | 5 | 254 | 0.0 | 12.9 | 0.00 | 0.00 | 0.00 | 78 | 1013.1 |
| 20260507142745 | 5 | 254 | 1.6 | 12.9 | 0.00 | 0.00 | 0.00 | 77 | 1013.1 |
| 20260507142233 | 5 | 263 | 0.0 | 4.8 | 0.00 | 0.00 | 0.00 | 78 | 1013.0 |
| 20260507141738 | 5 | 263 | 0.0 | 0.0 | 0.00 | 0.00 | 0.00 | 77 | 1013.1 |
| 20260507141246 | 5 | 267 | 0.0 | 0.0 | 0.00 | 0.00 | 0.00 | 79 | 1013.1 |
| 20260507140733 | 5 | 268 | 0.0 | 0.0 | 0.00 | 0.00 | 0.00 | 79 | 1013.0 |
| 20260507140241 | 5 | 268 | 0.0 | 0.0 | 0.00 | 0.00 | 0.00 | 78 | 1013.0 |
| 20260507135721 | 5 | 268 | 0.0 | 0.0 | 0.00 | 0.00 | 0.00 | 79 | 1013.0 |
| 20260507135239 | 4 | 269 | 0.0 | 0.0 | 0.00 | 0.00 | 0.00 | 80 | 1013.1 |
| 20260507134726 | 4 | 269 | 0.0 | 0.0 | 0.00 | 0.00 | 0.00 | 81 | 1013.0 |
| 20260507134238 | 4 | 269 | 0.0 | 0.0 | 0.00 | 0.00 | 0.00 | 80 | 1013.0 |
| 20260507133738 | 4 | 275 | 0.0 | 0.0 | 0.00 | 0.00 | 0.00 | 82 | 1013.0 |
| 20260507133239 | 3 | 279 | 0.0 | 0.0 | 0.00 | 0.00 | 0.00 | 83 | 1013.0 |
| 20260507132736 | 3 | 281 | 0.0 | 0.0 | 0.00 | 0.00 | 0.00 | 85 | 1013.0 |
| 20260507132239 | 3 | 281 | 0.0 | 0.0 | 0.00 | 0.00 | 0.00 | 86 | 1013.0 |
| 20260507131723 | 3 | 282 | 0.0 | 4.8 | 0.00 | 0.00 | 0.00 | 88 | 1013.0 |
| 20260507131236 | 3 | 285 | 0.0 | 0.0 | 0.00 | 0.00 | 0.00 | 88 | 1013.0 |
| 20260507130739 | 2 | 285 | 0.0 | 0.0 | 0.00 | 0.00 | 0.00 | 88 | 1013.0 |
| 20260507130237 | 2 | 285 | 0.0 | 0.0 | 0.00 | 0.00 | 0.00 | 89 | 1013.0 |
| 20260507125732 | 2 | 285 | 0.0 | 0.0 | 0.00 | 0.00 | 0.00 | 89 | 1013.0 |
| 20260507125236 | 2 | 285 | 0.0 | 0.0 | 0.00 | 0.00 | 0.00 | 89 | 1012.9 |
| 20260507124740 | 2 | 285 | 0.0 | 0.0 | 0.00 | 0.00 | 0.00 | 89 | 1012.9 |
| 20260507124223 | 1 | 285 | 0.0 | 0.0 | 0.00 | 0.00 | 0.00 | 89 | 1012.9 |
| 20260507123735 | 1 | 285 | 0.0 | 0.0 | 0.00 | 0.00 | 0.00 | 89 | 1012.9 |
| 20260507123220 | 1 | 285 | 0.0 | 0.0 | 0.00 | 0.00 | 0.00 | 89 | 1012.9 |
| 20260507122740 | 1 | 285 | 0.0 | 0.0 | 0.00 | 0.00 | 0.00 | 89 | 1012.9 |
| 20260507122242 | 1 | 285 | 0.0 | 0.0 | 0.00 | 0.00 | 0.00 | 89 | 1012.9 |
| 20260507121745 | 1 | 285 | 0.0 | 0.0 | 0.00 | 0.00 | 0.00 | 89 | 1012.9 |
| 20260507121229 | 1 | 285 | 0.0 | 0.0 | 0.00 | 0.00 | 0.00 | 89 | 1012.8 |
| 20260507120742 | 0 | 285 | 0.0 | 0.0 | 0.00 | 0.00 | 0.00 | 89 | 1012.9 |
| 20260507120226 | 0 | 285 | 0.0 | 0.0 | 0.00 | 0.00 | 0.00 | 88 | 1012.9 |
| 20260507115730 | 0 | 285 | 0.0 | 0.0 | 0.00 | 0.00 | 0.00 | 88 | 1012.9 |
| 20260507115245 | 0 | 286 | 0.0 | 0.0 | 0.00 | 0.00 | 0.00 | 87 | 1012.8 |
| 20260507114721 | 0 | 286 | 0.0 | 0.0 | 0.00 | 0.00 | 0.00 | 86 | 1012.7 |
| 20260507114233 | 0 | 286 | 0.0 | 0.0 | 0.00 | 0.00 | 0.00 | 85 | 1012.6 |
| 20260507113739 | 0 | 286 | 0.0 | 0.0 | 0.00 | 0.00 | 0.00 | 85 | 1012.6 |
| 20260507113220 | 0 | 286 | 0.0 | 0.0 | 0.00 | 0.00 | 0.00 | 84 | 1012.6 |
| 20260507112743 | 0 | 286 | 0.0 | 0.0 | 0.00 | 0.00 | 0.00 | 84 | 1012.5 |
| 20260507112227 | 0 | 286 | 0.0 | 0.0 | 0.00 | 0.00 | 0.00 | 84 | 1012.6 |
| 20260507111741 | 0 | 286 | 0.0 | 0.0 | 0.00 | 0.00 | 0.00 | 83 | 1012.6 |
| 20260507111226 | 0 | 286 | 0.0 | 0.0 | 0.00 | 0.00 | 0.00 | 83 | 1012.6 |
| 20260507110735 | -1 | 286 | 0.0 | 0.0 | 0.00 | 0.00 | 0.00 | 83 | 1012.4 |
| 20260507110219 | -1 | 286 | 0.0 | 0.0 | 0.00 | 0.00 | 0.00 | 83 | 1012.4 |
| 20260507105744 | -1 | 286 | 0.0 | 0.0 | 0.00 | 0.00 | 0.00 | 83 | 1012.4 |
| 20260507105246 | -1 | 286 | 0.0 | 0.0 | 0.00 | 0.00 | 0.00 | 84 | 1012.4 |
| 20260507104728 | -1 | 286 | 0.0 | 0.0 | 0.00 | 0.00 | 0.00 | 84 | 1012.3 |
| 20260507104240 | -1 | 286 | 0.0 | 0.0 | 0.00 | 0.00 | 0.00 | 84 | 1012.3 |
| 20260507103743 | -1 | 286 | 0.0 | 0.0 | 0.00 | 0.00 | 0.00 | 84 | 1012.3 |
| 20260507103241 | -1 | 286 | 0.0 | 0.0 | 0.00 | 0.00 | 0.00 | 85 | 1012.3 |
| 20260507102736 | -1 | 286 | 0.0 | 0.0 | 0.00 | 0.00 | 0.00 | 85 | 1012.2 |
| 20260507102239 | -1 | 286 | 0.0 | 0.0 | 0.00 | 0.00 | 0.00 | 85 | 1012.3 |
| 20260507101741 | -1 | 286 | 0.0 | 0.0 | 0.00 | 0.00 | 0.00 | 85 | 1012.2 |
| 20260507101224 | -1 | 286 | 0.0 | 0.0 | 0.00 | 0.00 | 0.00 | 85 | 1012.2 |
| 20260507100737 | -1 | 286 | 0.0 | 0.0 | 0.00 | 0.00 | 0.00 | 85 | 1012.3 |
| 20260507100220 | -1 | 286 | 0.0 | 0.0 | 0.00 | 0.00 | 0.00 | 85 | 1012.4 |
| 20260507095719 | -1 | 286 | 0.0 | 0.0 | 0.00 | 0.00 | 0.00 | 85 | 1012.3 |
| 20260507095232 | -1 | 286 | 0.0 | 0.0 | 0.00 | 0.00 | 0.00 | 85 | 1012.3 |
| 20260507094736 | -1 | 286 | 0.0 | 0.0 | 0.00 | 0.00 | 0.00 | 85 | 1012.4 |
| 20260507094240 | -1 | 286 | 0.0 | 0.0 | 0.00 | 0.00 | 0.00 | 85 | 1012.4 |
| 20260507093743 | -1 | 286 | 0.0 | 0.0 | 0.00 | 0.00 | 0.00 | 85 | 1012.4 |
| 20260507093246 | -1 | 286 | 0.0 | 0.0 | 0.00 | 0.00 | 0.00 | 85 | 1012.5 |
| 20260507092739 | -1 | 286 | 0.0 | 0.0 | 0.00 | 0.00 | 0.00 | 85 | 1012.5 |
| 20260507092237 | -1 | 286 | 0.0 | 0.0 | 0.00 | 0.00 | 0.00 | 85 | 1012.6 |
| 20260507091719 | -1 | 286 | 0.0 | 0.0 | 0.00 | 0.00 | 0.00 | 84 | 1012.6 |
| 20260507091232 | -1 | 286 | 0.0 | 0.0 | 0.00 | 0.00 | 0.00 | 85 | 1012.7 |
| 20260507090736 | -1 | 286 | 0.0 | 0.0 | 0.00 | 0.00 | 0.00 | 85 | 1012.7 |
| 20260507090221 | -1 | 286 | 0.0 | 0.0 | 0.00 | 0.00 | 0.00 | 85 | 1012.7 |
| 20260507085725 | -1 | 286 | 0.0 | 0.0 | 0.00 | 0.00 | 0.00 | 85 | 1012.7 |
| 20260507085237 | -1 | 286 | 0.0 | 0.0 | 0.00 | 0.00 | 0.00 | 85 | 1012.7 |
| 20260507084736 | -1 | 286 | 0.0 | 0.0 | 0.00 | 0.00 | 0.00 | 86 | 1012.7 |
| 20260507084240 | -1 | 286 | 0.0 | 0.0 | 0.00 | 0.00 | 0.00 | 86 | 1012.8 |
| 20260507083743 | -1 | 286 | 0.0 | 0.0 | 0.00 | 0.00 | 0.00 | 85 | 1012.7 |
| 20260507083226 | -1 | 286 | 0.0 | 0.0 | 0.00 | 0.00 | 0.00 | 85 | 1012.7 |
| 20260507082728 | -1 | 286 | 0.0 | 0.0 | 0.00 | 0.00 | 0.00 | 84 | 1012.7 |
| 20260507082246 | -1 | 286 | 0.0 | 0.0 | 0.00 | 0.00 | 0.00 | 85 | 1012.7 |
| 20260507081729 | -1 | 286 | 0.0 | 0.0 | 0.00 | 0.00 | 0.00 | 84 | 1012.7 |
| 20260507081241 | -1 | 286 | 0.0 | 0.0 | 0.00 | 0.00 | 0.00 | 84 | 1012.8 |
| 20260507080740 | -1 | 286 | 0.0 | 0.0 | 0.00 | 0.00 | 0.00 | 84 | 1012.7 |
| 20260507080244 | -1 | 286 | 0.0 | 0.0 | 0.00 | 0.00 | 0.00 | 85 | 1012.8 |
| 20260507075738 | -1 | 286 | 0.0 | 0.0 | 0.00 | 0.00 | 0.00 | 85 | 1012.8 |
| 20260507075223 | -1 | 286 | 0.0 | 0.0 | 0.00 | 0.00 | 0.00 | 85 | 1012.8 |
| 20260507074737 | -1 | 286 | 0.0 | 0.0 | 0.00 | 0.00 | 0.00 | 85 | 1012.9 |
| 20260507074241 | -1 | 286 | 0.0 | 0.0 | 0.00 | 0.00 | 0.00 | 85 | 1012.9 |
| 20260507073725 | -1 | 286 | 0.0 | 0.0 | 0.00 | 0.00 | 0.00 | 86 | 1012.9 |
| 20260507073218 | -1 | 286 | 0.0 | 0.0 | 0.00 | 0.00 | 0.00 | 86 | 1013.0 |
| 20260507072740 | -1 | 286 | 0.0 | 0.0 | 0.00 | 0.00 | 0.00 | 87 | 1013.0 |
| 20260507072242 | -1 | 286 | 0.0 | 0.0 | 0.00 | 0.00 | 0.00 | 87 | 1013.0 |
| 20260507071726 | -1 | 286 | 0.0 | 0.0 | 0.00 | 0.00 | 0.00 | 87 | 1013.0 |
| 20260507071245 | -1 | 286 | 0.0 | 0.0 | 0.00 | 0.00 | 0.00 | 87 | 1013.1 |
| 20260507070730 | -1 | 286 | 0.0 | 0.0 | 0.00 | 0.00 | 0.00 | 87 | 1013.1 |
| 20260507070243 | -1 | 286 | 0.0 | 0.0 | 0.00 | 0.00 | 0.00 | 87 | 1013.1 |
| 20260507065740 | -1 | 286 | 0.0 | 0.0 | 0.00 | 0.00 | 0.00 | 87 | 1013.2 |
| 20260507065220 | -1 | 286 | 0.0 | 0.0 | 0.00 | 0.00 | 0.00 | 87 | 1013.2 |
| 20260507064733 | -1 | 286 | 0.0 | 0.0 | 0.00 | 0.00 | 0.00 | 87 | 1013.3 |
| 20260507064236 | -1 | 286 | 0.0 | 0.0 | 0.00 | 0.00 | 0.00 | 88 | 1013.4 |
| 20260507063741 | -1 | 286 | 0.0 | 0.0 | 0.00 | 0.00 | 0.00 | 88 | 1013.4 |
| 20260507063244 | -1 | 286 | 0.0 | 0.0 | 0.00 | 0.00 | 0.00 | 88 | 1013.5 |
| 20260507062739 | -1 | 286 | 0.0 | 0.0 | 0.00 | 0.00 | 0.00 | 88 | 1013.4 |
| 20260507062242 | -1 | 286 | 0.0 | 0.0 | 0.00 | 0.00 | 0.00 | 88 | 1013.4 |
| 20260507061722 | -1 | 286 | 0.0 | 0.0 | 0.00 | 0.00 | 0.00 | 88 | 1013.4 |
| 20260507061234 | -1 | 286 | 0.0 | 0.0 | 0.00 | 0.00 | 0.00 | 88 | 1013.4 |
| 20260507060737 | -1 | 286 | 0.0 | 0.0 | 0.00 | 0.00 | 0.00 | 88 | 1013.4 |
| 20260507060222 | -1 | 286 | 0.0 | 0.0 | 0.00 | 0.00 | 0.00 | 89 | 1013.4 |
| 20260507055725 | -1 | 286 | 0.0 | 0.0 | 0.00 | 0.00 | 0.00 | 89 | 1013.4 |
| 20260507055239 | -1 | 286 | 0.0 | 0.0 | 0.00 | 0.00 | 0.00 | 89 | 1013.5 |
| 20260507054724 | 0 | 286 | 0.0 | 0.0 | 0.00 | 0.00 | 0.00 | 89 | 1013.6 |
| 20260507054236 | 0 | 286 | 0.0 | 0.0 | 0.00 | 0.00 | 0.00 | 88 | 1013.6 |
| 20260507053737 | 0 | 286 | 0.0 | 0.0 | 0.00 | 0.00 | 0.00 | 89 | 1013.6 |
| 20260507053242 | 0 | 286 | 0.0 | 0.0 | 0.00 | 0.00 | 0.00 | 89 | 1013.6 |
| 20260507052718 | 0 | 286 | 0.0 | 0.0 | 0.00 | 0.00 | 0.00 | 88 | 1013.7 |
| 20260507052230 | 0 | 286 | 0.0 | 0.0 | 0.00 | 0.00 | 0.00 | 88 | 1013.7 |
| 20260507051743 | 0 | 286 | 0.0 | 0.0 | 0.00 | 0.00 | 0.00 | 88 | 1013.7 |
| 20260507051228 | 0 | 286 | 0.0 | 0.0 | 0.00 | 0.00 | 0.00 | 88 | 1013.7 |
| 20260507050738 | 0 | 286 | 0.0 | 0.0 | 0.00 | 0.00 | 0.00 | 88 | 1013.7 |
| 20260507050239 | 0 | 286 | 0.0 | 0.0 | 0.00 | 0.00 | 0.00 | 87 | 1013.7 |
| 20260507045734 | 0 | 286 | 0.0 | 0.0 | 0.00 | 0.00 | 0.00 | 87 | 1013.8 |
| 20260507045238 | 0 | 286 | 0.0 | 0.0 | 0.00 | 0.00 | 0.00 | 86 | 1013.8 |
| 20260507044721 | 1 | 286 | 0.0 | 0.0 | 0.00 | 0.00 | 0.00 | 85 | 1013.8 |
| 20260507044231 | 1 | 286 | 0.0 | 0.0 | 0.00 | 0.00 | 0.00 | 84 | 1013.9 |
| 20260507043743 | 1 | 286 | 0.0 | 0.0 | 0.00 | 0.00 | 0.00 | 82 | 1013.8 |
| 20260507043245 | 2 | 286 | 0.0 | 0.0 | 0.00 | 0.00 | 0.00 | 81 | 1013.9 |
| 20260507042737 | 2 | 286 | 0.0 | 0.0 | 0.00 | 0.00 | 0.00 | 79 | 1013.9 |
| 20260507042240 | 2 | 286 | 0.0 | 0.0 | 0.00 | 0.00 | 0.00 | 77 | 1014.0 |
| 20260507041742 | 2 | 286 | 0.0 | 0.0 | 0.00 | 0.00 | 0.00 | 77 | 1014.0 |
| 20260507041225 | 2 | 286 | 0.0 | 0.0 | 0.00 | 0.00 | 0.00 | 77 | 1014.0 |
| 20260507040737 | 2 | 286 | 0.0 | 0.0 | 0.00 | 0.00 | 0.00 | 77 | 1014.0 |
| 20260507040221 | 2 | 286 | 0.0 | 6.4 | 0.00 | 0.00 | 0.00 | 76 | 1014.0 |
| 20260507035738 | 2 | 286 | 1.6 | 6.4 | 0.00 | 0.00 | 0.00 | 76 | 1014.1 |
| 20260507035238 | 2 | 286 | 0.0 | 8.0 | 0.00 | 0.00 | 0.00 | 76 | 1014.0 |
| 20260507034742 | 2 | 286 | 4.8 | 12.9 | 0.00 | 0.00 | 0.00 | 76 | 1014.0 |
| 20260507034247 | 2 | 286 | 6.4 | 12.9 | 0.00 | 0.00 | 0.00 | 77 | 1014.0 |
| 20260507033731 | 2 | 286 | 4.8 | 11.3 | 0.00 | 0.00 | 0.00 | 80 | 1014.0 |
| 20260507033243 | 2 | 286 | 0.0 | 0.0 | 0.00 | 0.00 | 0.00 | 81 | 1013.9 |
| 20260507032739 | 2 | 286 | 0.0 | 0.0 | 0.00 | 0.00 | 0.00 | 80 | 1013.9 |
| 20260507032222 | 3 | 286 | 0.0 | 0.0 | 0.00 | 0.00 | 0.00 | 79 | 1014.0 |
| 20260507031735 | 3 | 286 | 0.0 | 0.0 | 0.00 | 0.00 | 0.00 | 77 | 1014.0 |
| 20260507031234 | 3 | 286 | 0.0 | 0.0 | 0.00 | 0.00 | 0.00 | 76 | 1013.9 |
| 20260507030738 | 3 | 286 | 0.0 | 3.2 | 0.00 | 0.00 | 0.00 | 75 | 1013.9 |
| 20260507030219 | 3 | 286 | 0.0 | 3.2 | 0.00 | 0.00 | 0.00 | 73 | 1014.0 |
| 20260507025741 | 3 | 286 | 1.6 | 4.8 | 0.00 | 0.00 | 0.00 | 73 | 1014.0 |
| 20260507025223 | 3 | 286 | 3.2 | 4.8 | 0.00 | 0.00 | 0.00 | 73 | 1014.0 |
| 20260507024736 | 3 | 286 | 3.2 | 4.8 | 0.00 | 0.00 | 0.00 | 73 | 1014.0 |
| 20260507024238 | 3 | 286 | 1.6 | 4.8 | 0.00 | 0.00 | 0.00 | 73 | 1013.9 |
| 20260507023740 | 3 | 286 | 1.6 | 4.8 | 0.00 | 0.00 | 0.00 | 73 | 1013.9 |
| 20260507023243 | 3 | 286 | 1.6 | 4.8 | 0.00 | 0.00 | 0.00 | 72 | 1013.9 |
| 20260507022736 | 3 | 286 | 3.2 | 4.8 | 0.00 | 0.00 | 0.00 | 72 | 1013.9 |
| 20260507022220 | 3 | 286 | 1.6 | 3.2 | 0.00 | 0.00 | 0.00 | 72 | 1013.9 |
| 20260507021731 | 3 | 286 | 1.6 | 4.8 | 0.00 | 0.00 | 0.00 | 71 | 1013.8 |
| 20260507021243 | 3 | 286 | 3.2 | 6.4 | 0.00 | 0.00 | 0.00 | 71 | 1013.8 |
| 20260507020746 | 3 | 286 | 3.2 | 6.4 | 0.00 | 0.00 | 0.00 | 72 | 1013.8 |
| 20260507020244 | 3 | 286 | 3.2 | 8.0 | 0.00 | 0.00 | 0.00 | 72 | 1013.8 |
| 20260507015720 | 3 | 286 | 6.4 | 8.0 | 0.00 | 0.00 | 0.00 | 72 | 1013.9 |
| 20260507015233 | 3 | 286 | 4.8 | 8.0 | 0.00 | 0.00 | 0.00 | 71 | 1013.9 |
| 20260507014735 | 3 | 286 | 4.8 | 8.0 | 0.00 | 0.00 | 0.00 | 71 | 1013.9 |
| 20260507014219 | 3 | 286 | 1.6 | 8.0 | 0.00 | 0.00 | 0.00 | 71 | 1013.8 |
| 20260507013730 | 3 | 286 | 4.8 | 9.7 | 0.00 | 0.00 | 0.00 | 71 | 1013.9 |
| 20260507013246 | 3 | 286 | 6.4 | 8.0 | 0.00 | 0.00 | 0.00 | 71 | 1013.7 |
| 20260507012721 | 3 | 286 | 6.4 | 9.7 | 0.00 | 0.00 | 0.00 | 70 | 1013.6 |
| 20260507012232 | 3 | 286 | 4.8 | 8.0 | 0.00 | 0.00 | 0.00 | 71 | 1013.5 |
| 20260507011735 | 4 | 286 | 4.8 | 9.7 | 0.00 | 0.00 | 0.00 | 70 | 1013.5 |
| 20260507011218 | 4 | 286 | 6.4 | 8.0 | 0.00 | 0.00 | 0.00 | 67 | 1013.5 |
| 20260507010730 | 4 | 286 | 3.2 | 12.9 | 0.00 | 0.00 | 0.00 | 66 | 1013.5 |
| 20260507010244 | 4 | 286 | 4.8 | 12.9 | 0.00 | 0.00 | 0.00 | 65 | 1013.5 |
| 20260507005738 | 4 | 286 | 6.4 | 12.9 | 0.00 | 0.00 | 0.00 | 65 | 1013.5 |
| 20260507005222 | 4 | 286 | 4.8 | 11.3 | 0.00 | 0.00 | 0.00 | 63 | 1013.4 |
| 20260507004730 | 4 | 286 | 3.2 | 12.9 | 0.00 | 0.00 | 0.00 | 62 | 1013.5 |
| 20260507004235 | 4 | 286 | 8.0 | 11.3 | 0.00 | 0.00 | 0.00 | 62 | 1013.4 |
| 20260507003739 | 4 | 286 | 6.4 | 11.3 | 0.00 | 0.00 | 0.00 | 62 | 1013.4 |
| 20260507003224 | 4 | 286 | 4.8 | 11.3 | 0.00 | 0.00 | 0.00 | 62 | 1013.3 |
| 20260507002726 | 4 | 286 | 6.4 | 12.9 | 0.00 | 0.00 | 0.00 | 62 | 1013.3 |
| 20260507002239 | 4 | 286 | 8.0 | 14.5 | 0.00 | 0.00 | 0.00 | 62 | 1013.3 |
| 20260507001724 | 4 | 286 | 11.3 | 14.5 | 0.00 | 0.00 | 0.00 | 62 | 1013.4 |
| 20260507001235 | 4 | 287 | 8.0 | 14.5 | 0.00 | 0.00 | 0.00 | 62 | 1013.3 |
| 20260507000737 | 4 | 287 | 4.8 | 14.5 | 0.00 | 0.00 | 0.00 | 62 | 1013.4 |
| 20260507000222 | 4 | 287 | 9.7 | 16.1 | 0.00 | 0.00 | 0.00 | 62 | 1013.4 |
| 20260506235746 | 4 | 287 | 8.0 | 16.1 | 0.00 | 0.00 | 0.00 | 61 | 1013.4 |
| 20260506235230 | 4 | 287 | 9.7 | 16.1 | 0.00 | 0.00 | 0.00 | 61 | 1013.3 |
| 20260506234743 | 5 | 286 | 11.3 | 16.1 | 0.00 | 0.00 | 0.00 | 61 | 1013.4 |
| 20260506234227 | 5 | 290 | 8.0 | 16.1 | 0.00 | 0.00 | 0.00 | 62 | 1013.3 |
| 20260506233739 | 5 | 290 | 9.7 | 16.1 | 0.00 | 0.00 | 0.00 | 61 | 1013.4 |
| 20260506233240 | 5 | 288 | 9.7 | 14.5 | 0.00 | 0.00 | 0.00 | 61 | 1013.4 |
| 20260506232737 | 5 | 287 | 4.8 | 16.1 | 0.00 | 0.00 | 0.00 | 60 | 1013.4 |